INTELSAT 17 (IS-17)

Last updated on Sat Aug 15 2026 00:02:58 GMT+0000 (Coordinated Universal Time)

1 37238U 10065B 26226.58105612 -.00000017 00000+0 00000+0 0 9998 2 37238 0.0222 85.0757 0002656 74.0005 79.1020 1.00272690 53833
UTC large
Height (km)
Speed (km/s)
/
Latitude / Longitude
Inclination (degrees)
Orbital Period (minutes)
Azimuth
Elevation
Range (km)
Doppler Factor

Next 0 passes for location: London (51.5072 / 0.1276)

No passes found over London.
INTELSAT 17 (IS-17)